Regional Weather Roundup
Issued by NWS

Home | Current Version | Previous Version | Text Only | Print | Product List | Glossary On
Versions: 1 2 3 4 5 6 7 8 9 10 11 12 13 14 15 16 17 18 19 20 21 22 23 24 25 26 27 28 29 30 31 32 33 34 35 36 37 38 39 40 41 42 43 44 45 46 47 48 49 50
000
ASUS45 KBOU 290507
RWRCO

WEATHER ROUNDUP FOR COLORADO
NATIONAL WEATHER SERVICE DENVER/BOULDER CO
1100 PM MDT THU AUG 28 2014

NOTE: "FAIR" INDICATES FEW OR NO CLOUDS BELOW 12000 FEET WITH NO
SIGNIFICANT WEATHER AND/OR OBSTRUCTIONS TO VISIBILITY.

COZ001>005-013-030-031-290600-
...NORTHWEST COLORADO...

CITY           SKY/WX    TMP DP  RH WIND       PRES   REMARKS
CRAIG          CLEAR     53  49  86 SE3       30.23R
HAYDEN         CLEAR     55  48  76 E10       30.25S
MEEKER         CLEAR     53  49  86 NE6       30.26R
MOUNT WERNER   NOT AVBL
STEAMBOAT SPGS CLEAR     51  47  87 CALM      30.27F
WALDEN         CLEAR     43  37  81 SE7       30.32F
$$

COZ006>008-011-290600-
...WEST CENTRAL VALLEYS...

CITY           SKY/WX    TMP DP  RH WIND       PRES   REMARKS
GRAND JUNCTION CLEAR     62  54  74 SE7       30.15S
MONTROSE       CLEAR     59  48  67 SE12      30.25S
EAGLE          PTCLDY    55  46  71 SE5       30.30R
RIFLE          CLEAR     58  50  75 SE6       30.21R
DELTA          CLEAR     63  51  66 NE9       30.20S
NUCLA          CLEAR     59  46  63 E10       30.27S
$$

COZ017>023-064>068-290600-
...SOUTHWEST COLORADO...

CITY           SKY/WX    TMP DP  RH WIND       PRES   REMARKS
DURANGO        CLEAR     59  37  44 S5        30.24R
CORTEZ         CLEAR     55  48  77 N3        30.23F
PAGOSA SPRINGS CLEAR     57  34  41 N3        30.31S
TELLURIDE      CLEAR     48  39  71 CALM      30.43S
WOLF CREEK PAS CLEAR     37  32  81 NE15      30.55F
$$

COZ009-010-012-014-032>034-037-058>063-290600-
...CENTRAL COLORADO...

CITY           SKY/WX    TMP DP  RH WIND       PRES   REMARKS
ASPEN          PTCLDY    48  42  80 S7        30.35R
BUENA VISTA    CLEAR     53  39  59 CALM      30.33S
COPPER MTN     CLOUDY    43  37  81 W20G29    30.56S
BERTHOUD PASS  FOG       34  34 100 NW24G31   30.57R VSB<1/4 WCI  21
COTTONWOOD PAS CLEAR     52  36  54 W13       30.43F
GUNNISON       CLEAR     50  39  66 CALM      30.37R
KREMMLING      PTCLDY    48  45  87 CALM      30.33S
LEADVILLE      CLOUDY    44  38  79 VRB3      30.44S
MONARCH PASS   CLEAR     39  32  75 W9        30.66S
SALIDA         CLEAR     52  41  65 SW6       30.39R
SUNLIGHT       CLEAR     46  41  81 CALM      30.53S
WILKERSON PASS NOT AVBL
$$

COZ069>075-290600-
...SAN LUIS VALLEY/SANGRE DE CRISTO MOUNTAINS...

CITY           SKY/WX    TMP DP  RH WIND       PRES   REMARKS
ALAMOSA        CLEAR     48  42  80 W5        30.30S
LA VETA PASS   NOT AVBL
SAGUACHE       NOT AVBL
$$

COZ035-036-038>040-290600-
...NORTHERN COLORADO FRONT RANGE...

CITY           SKY/WX    TMP DP  RH WIND       PRES   REMARKS
DENVER INTL AP PTCLDY    58  47  66 SW9       30.13F
DMNS CITY PARK   N/A     56  48  73 S6        30.13S
AURORA         PTCLDY    54  47  76 S8        30.16S
FRONT RANGE AP PTCLDY    55  50  82 SW10      30.14F
ERIE MUNI ARPT CLEAR     55  50  83 CALM      30.12F
BOULDER MUN AP CLEAR     55  52  88 CALM      30.12F
CENTENNIAL     PTCLDY    53  46  77 S7        30.16F
BROOMFIELD     NOT AVBL
FORT COLLINS   CLEAR     55  48  76 S7        30.13S
LONGMONT       CLEAR     53  49  87 W3        30.13F
$$

COZ041-046-047-076>085-087-088-290600-
...PIKES PEAK/PALMER DIVIDE AND SOUTHERN FOOTHILLS...

CITY           SKY/WX    TMP DP  RH WIND       PRES   REMARKS
COLO. SPRINGS  PTCLDY    52  45  77 N7        30.21F
A. F. ACADEMY  CLEAR     47  44  90 NE5       30.22F
ELLICOTT       CLEAR     49  46  90 CALM      30.19S
FALCON         PTCLDY    48  42  80 W8        30.24S
FORT CARSON    CLEAR     51  48  90 N7        30.18F
LIMON          PTCLDY    52  49  89 W6        30.14F
MONUMENT HILL  CLEAR     46  41  81 S6        30.23F
TRINIDAD       PTCLDY    55  48  77 SW8       30.21F
$$

COZ042>045-048>051-090-091-290600-
...NORTHEAST COLORADO...

CITY           SKY/WX    TMP DP  RH WIND       PRES   REMARKS
GREELEY ARPT   PTCLDY    54  45  71 CALM      30.11F
AKRON          MOCLDY    59  53  80 W14       30.07F
BURLINGTON     CLEAR     59  54  83 W7        30.02F
WRAY             N/A     59  58  97 W7        30.00F
STERLING       MOCLDY    66  54  63 W10       30.03F
HOLYOKE        PTCLDY    61  54  77 W8        30.00S
FORT MORGAN    MOCLDY    56  51  85 NW6       30.09F
$$

COZ086-089-092>099-290600-
...SOUTHEAST COLORADO...

CITY           SKY/WX    TMP DP  RH WIND       PRES   REMARKS
PUEBLO         CLEAR     55  51  86 W8        30.13S
LA JUNTA       MOCLDY    60  55  83 W7        30.09F
LAMAR          PTCLDY    62  55  77 W8        30.03S
SPRINGFIELD      N/A     61  53  75 W8        30.08F
$$



USA.gov is the U.S. government's official web portal to all federal, state and local government web resources and services.